Dewpoint
21 22 21 17 21 23 31 36 35 36 38 41 36 42 43 45 33 29 50 54 52 52 53 55 57 58 59 59 59 60 60 60 61 62 62 63 64 65 65 66 67 68 68 69 69 70 70 70 70 70 70 71 71 72 72 72 72 72 72 73 73 72 73 73 74 74 74 74 75 76 75 75 74 74 73 73 73 73 73 72 70 70 70 70 70 71 71
21 22 20 19 20 19 21 25 34 41 38 39 43 44 44 45 49 46 51 54 53 53 53 56 57 58 59 59 61 60 60 60 60 61 62 62 62 62 64 64 65 66 67 68 69 69 69 69 69 70 70 69 69 70 70 70 71 71 72 72 72 71 71 71 72 72 73 73 73 73 74 73 74 74 73 73 72 72 73 73 73 73 73 72 71 71 71
21 22 23 20 18 20 24 24 25 26 41 45 48 48 49 49 50 50 52 53 53 54 55 56 57 58 58 59 59 59 59 59 60 60 61 61 61 61 63 64 65 65 66 67 68 68 68 69 69 68 68 68 69 69 69 69 70 71 72 72 71 70 70 71 72 72 72 72 72 73 73 72 73 73 73 73 74 73 73 73 74 75 73 72 71 70 70
22 21 21 22 21 16 22 25 29 31 28 44 46 47 49 48 51 52 51 51 51 54 54 56 57 57 57 57 57 58 59 59 60 60 60 60 61 61 62 63 64 65 65 65 65 66 66 67 67 67 67 68 67 67 67 68 69 71 71 71 70 70 70 71 71 71 72 71 71 71 72 71 71 72 73 73 74 74 72 72 74 72 72 73 73 72 70
22 20 23 25 22 23 22 24 30 30 28 37 44 48 50 50 52 50 48 49 54 55 55 55 56 56 56 56 57 58 60 60 60 60 60 60 60 61 62 63 63 63 64 64 64 64 64 65 65 66 66 65 65 65 65 66 67 68 68 68 68 69 69 70 71 72 71 71 71 72 72 72 72 72 72 72 71 72 73 73 72 73 73 72 73 72 72
24 21 27 29 23 19 20 30 28 31 29 33 34 44 48 51 50 50 51 54 55 55 54 55 55 55 56 57 58 59 60 60 60 60 60 60 60 61 62 62 62 62 62 63 64 63 63 64 65 65 65 65 64 64 65 66 66 65 66 66 66 66 67 69 69 70 71 71 71 72 72 72 72 72 72 72 72 73 73 73 73 72 71 72 72 73 73
22 29 30 23 21 19 25 26 30 38 33 37 47 49 50 49 48 49 51 54 55 55 54 55 56 57 56 57 57 58 59 60 59 59 58 60 60 60 61 61 61 61 60 60 62 63 63 63 64 63 62 62 62 64 64 63 63 63 64 64 63 64 66 66 68 68 69 69 69 70 71 71 70 70 71 72 72 72 73 72 73 73 73 72 72 72 71
29 25 24 22 22 25 27 26 28 35 40 31 45 47 47 47 46 51 52 54 54 55 54 55 56 57 56 56 57 58 59 59 59 58 58 59 61 60 61 61 61 60 60 62 62 62 63 63 63 62 61 61 60 61 61 62 63 62 62 62 62 63 63 63 64 65 67 67 67 68 69 70 70 70 70 71 71 72 72 73 73 73 73 72 72 72 73
31 25 22 21 35 23 26 25 26 28 30 31 33 41 46 47 48 52 53 54 54 54 54 55 56 56 55 55 55 55 56 57 57 58 58 58 58 59 61 61 61 62 60 61 61 61 60 60 60 59 59 58 58 58 59 61 62 62 62 62 62 62 63 64 64 64 65 65 67 67 68 68 68 69 70 71 71 72 72 72 72 72 72 72 73 73 73
39 32 21 23 18 19 23 29 31 34 34 35 35 40 45 47 48 53 54 54 54 54 54 55 55 55 55 53 54 54 55 55 55 54 55 57 57 57 58 59 59 60 59 59 60 59 60 59 59 58 57 58 59 59 59 59 59 60 60 61 62 62 61 62 63 64 65 65 66 67 67 67 68 69 70 71 71 72 71 70 69 69 69 70 70 70 70
30 31 25 23 19 23 33 35 35 36 38 37 36 42 40 47 51 54 54 53 54 54 54 55 55 54 52 52 53 53 53 53 53 53 54 55 56 57 57 57 57 57 58 58 58 58 58 57 58 59 59 59 57 58 58 58 59 60 61 61 62 61 61 62 62 63 64 64 65 67 67 68 69 70 70 70 70 71 71 70 69 69 70 69 70 70 70
34 30 27 25 32 30 36 40 39 40 39 36 43 31 32 48 49 54 54 54 54 54 54 54 54 53 50 52 54 52 51 51 52 53 54 55 56 56 56 56 58 59 59 58 56 55 55 56 57 58 55 55 57 56 57 58 58 59 61 62 62 62 62 62 62 62 63 64 64 65 66 66 67 68 69 68 68 69 68 68 69 68 69 69 68 69 69
30 29 26 27 29 40 41 42 42 40 40 41 37 28 37 43 49 53 55 55 54 55 55 54 53 53 55 57 54 51 50 50 51 53 54 55 55 55 55 55 57 55 55 55 55 55 56 56 54 55 55 54 55 56 55 55 55 57 60 61 61 62 61 60 61 62 62 63 62 63 64 64 65 66 66 66 67 67 67 67 66 66 65 66 65 65 64
23 24 24 24 29 35 43 44 44 45 33 29 28 38 44 44 46 52 54 55 55 55 55 55 55 58 56 53 52 51 50 51 52 52 53 54 54 54 56 56 55 53 52 54 54 54 55 54 54 54 55 56 56 56 54 54 55 56 59 60 60 60 61 61 61 61 62 62 61 60 63 63 63 63 65 66 65 65 66 66 66 66 65 63 59 59 62
27 27 25 22 22 39 44 45 40 43 37 37 42 44 45 46 48 52 54 55 55 55 53 54 57 56 53 54 53 52 52 52 52 53 54 55 54 53 54 53 53 51 52 51 50 51 51 53 53 53 54 56 56 56 55 56 56 57 57 58 59 59 60 60 62 62 63 63 63 61 60 61 61 61 62 63 65 66 66 65 64 64 64 63 60 59 60
17 19 20 23 36 42 44 44 38 42 43 44 45 45 43 46 51 53 54 55 54 53 52 53 54 54 53 53 53 52 53 52 53 54 55 54 53 52 51 50 51 51 52 51 49 50 51 55 56 56 56 56 56 56 56 58 57 57 57 57 58 57 58 59 59 60 61 62 63 63 63 62 61 61 61 62 63 64 65 64 63 62 61 60 58 57 58
34 30 35 42 44 44 44 46 45 45 46 46 46 46 45 46 51 53 54 53 52 52 53 53 54 53 52 52 51 52 55 56 55 55 55 53 52 51 50 49 52 50 49 51 50 51 52 55 56 57 56 56 56 56 58 59 58 56 56 56 56 56 56 57 58 59 60 61 62 62 62 61 59 58 59 59 60 63 63 62 61 61 61 60 60 60 60
41 42 43 44 45 46 47 46 47 46 46 45 46 44 45 46 47 50 53 51 49 51 53 51 54 53 53 50 50 51 51 52 53 55 55 55 53 53 52 52 52 51 50 50 51 52 54 54 55 57 56 55 56 57 58 59 58 57 56 56 56 56 54 55 55 56 56 56 59 60 60 61 60 59 58 58 59 61 61 61 61 60 59 58 58 58 59
37 34 44 45 45 46 47 47 48 47 47 46 45 44 45 45 47 50 51 51 51 51 55 55 56 54 50 53 50 51 51 51 53 53 53 53 53 52 52 55 54 52 50 50 52 52 53 54 52 52 54 54 57 59 59 56 56 57 57 57 57 56 55 53 54 56 57 55 55 57 59 57 58 57 57 57 59 60 60 58 59 58 57 57 56 56 58
33 39 44 45 45 47 47 47 47 47 49 49 48 47 47 48 49 50 50 50 50 50 51 53 52 52 53 54 52 51 52 52 52 52 53 53 53 53 54 54 54 53 53 53 53 54 54 55 55 55 56 56 58 57 56 55 55 58 58 57 55 55 53 54 54 54 54 56 56 55 57 57 54 54 55 56 57 57 57 58 57 57 56 56 55 55 55
40 42 44 45 45 45 46 47 48 49 50 50 49 49 47 46 46 47 49 50 50 51 52 53 54 54 54 52 53 53 53 53 54 54 54 54 54 54 54 55 55 54 54 54 54 54 55 55 55 55 55 55 56 57 57 58 58 58 58 58 57 55 54 54 55 57 55 55 54 56 58 59 58 60 56 54 57 58 60 60 59 56 56 56 57 56 57
36 38 42 46 40 41 44 47 48 49 50 49 49 48 48 48 48 47 46 47 50 51 54 55 53 52 56 54 53 51 52 53 53 53 54 54 54 53 54 54 55 55 56 55 55 55 55 56 56 56 56 56 56 54 57 57 57 57 57 57 57 56 56 55 56 55 56 55 57 58 57 56 58 59 58 49 55 58 56 58 49 45 49 57 57 58 58
38 45 46 49 47 47 47 48 49 50 51 50 48 48 48 49 49 49 47 46 48 48 48 49 51 53 54 52 50 50 49 51 52 52 53 53 54 54 53 53 54 55 55 55 56 56 55 56 55 55 55 54 55 55 56 56 56 57 56 55 55 54 55 54 56 57 57 57 59 60 59 59 58 58 56 57 46 46 54 55 49 40 39 41 44 49 61
47 48 48 49 48 45 47 48 49 51 51 50 50 50 50 50 50 50 49 48 46 46 45 46 48 49 50 51 49 48 50 51 52 52 53 53 54 53 53 53 54 55 55 55 55 56 56 56 55 55 54 54 54 54 55 55 55 56 55 55 54 53 53 54 56 57 56 57 57 57 58 58 58 57 55 56 58 49 46 49 46 42 43 43 43 45 46
48 50 50 50 50 49 49 49 50 51 52 51 49 49 50 52 51 50 50 50 49 47 47 45 45 47 49 49 49 50 50 50 51 52 53 53 53 53 52 53 54 55 55 55 55 56 56 56 55 54 53 53 54 53 54 54 53 54 54 54 54 53 54 54 55 55 54 56 56 56 56 56 56 56 55 53 52 54 59 45 44 45 45 44 43 43 44
53 52 52 53 52 52 52 52 50 50 51 52 52 50 50 51 53 52 51 51 50 49 49 47 45 46 47 48 49 48 49 50 51 52 51 52 51 51 52 53 54 55 55 56 57 56 56 56 55 54 53 52 53 53 50 52 53 53 54 53 53 53 53 53 54 54 54 54 54 54 55 55 54 54 55 54 54 54 53 56 57 50 45 44 44 43 42
52 53 52 49 47 48 50 49 49 51 52 52 52 52 52 52 52 52 52 51 50 50 50 49 49 49 49 49 48 48 49 50 50 51 51 50 50 51 49 52 54 55 55 55 56 56 56 55 54 54 53 52 53 53 53 52 53 53 53 53 52 53 52 52 52 53 52 53 53 55 55 55 54 53 54 55 54 53 52 53 52 53 54 58 50 47 55
50 51 51 45 47 49 49 50 50 51 52 52 52 53 53 54 53 51 50 51 52 52 52 51 50 51 51 50 49 48 47 48 50 51 51 51 49 50 51 52 52 54 54 55 56 56 55 55 53 53 52 52 53 52 50 51 52 52 52 52 51 49 50 51 51 52 51 52 52 53 53 54 54 52 52 52 52 52 52 53 53 53 52 53 54 52 49
48 49 51 50 50 50 51 50 50 48 48 49 52 53 53 51 52 52 51 51 52 52 52 52 52 51 50 50 50 49 48 48 48 49 51 52 52 51 52 52 53 54 54 55 56 56 56 55 53 52 52 52 51 51 50 50 51 50 50 49 49 49 49 49 49 49 49 51 52 52 50 52 51 51 51 51 51 51 52 52 52 51 52 53 53 53 54
47 48 48 47 48 48 48 46 46 45 44 46 47 49 50 49 48 50 50 51 52 52 52 53 53 52 51 51 51 50 48 47 48 50 50 51 51 52 51 52 53 54 54 54 55 56 55 54 53 53 52 51 50 51 48 51 50 51 50 50 49 48 49 50 49 49 49 49 49 48 50 49 50 50 50 50 50 50 50 51 50 50 50 50 50 50 49
46 47 47 47 46 45 44 45 46 46 45 45 45 44 44 46 46 47 48 49 50 50 52 53 53 53 53 52 52 51 51 49 50 50 52 52 52 52 52 53 51 51 52 53 55 56 55 54 53 53 52 51 50 50 50 49 50 50 49 49 49 49 49 48 47 48 47 46 47 46 46 47 46 47 47 47 48 48 49 49 49 49 50 50 49 49 49
45 44 45 44 44 43 43 45 44 43 45 46 44 43 43 44 44 44 44 46 49 50 51 51 52 52 54 54 54 53 52 52 51 51 50 51 52 52 52 52 52 53 55 56 56 54 54 54 53 52 52 52 51 51 50 49 49 48 48 46 47 46 47 46 45 45 45 45 44 44 44 45 44 45 46 46 45 47 48 48 48 48 48 48 48 48 49
45 44 44 44 44 44 43 44 43 42 44 44 45 46 46 46 45 45 45 47 48 51 51 52 51 52 53 54 55 55 55 53 53 52 52 51 52 52 52 52 52 53 54 55 55 54 54 52 52 52 51 51 51 50 50 49 48 47 46 46 46 45 46 46 45 44 44 44 42 43 43 44 44 44 44 46 46 46 46 46 46 47 47 47 47 48 49
46 46 45 44 44 44 43 43 44 44 44 45 46 46 46 46 47 47 47 48 46 46 47 49 51 53 53 53 53 53 54 53 53 54 53 53 52 52 52 52 53 53 54 55 54 53 53 53 51 50 50 50 51 49 49 48 48 47 48 46 45 45 44 43 45 43 43 43 43 42 43 44 43 43 45 46 46 46 46 47 46 46 45 46 47 48 47
48 47 47 46 46 45 45 44 44 45 45 44 44 45 46 47 47 48 48 48 47 46 47 50 52 54 53 53 53 52 52 51 51 52 53 54 53 52 52 52 52 52 52 52 53 52 52 51 51 50 49 48 46 46 48 48 47 46 47 47 46 44 43 44 42 42 42 42 42 41 42 43 44 45 46 47 46 47 45 45 45 44 45 45 46 47 47
47 47 46 46 46 46 46 45 45 46 46 46 46 46 46 47 47 48 47 47 49 50 51 51 52 53 53 53 52 51 51 51 51 52 52 53 53 53 52 51 51 51 50 50 51 51 51 49 50 48 47 45 44 45 45 45 46 46 47 45 44 43 43 42 42 42 42 41 41 41 42 44 45 45 45 46 46 45 44 44 44 44 44 45 46 45 45
46 45 45 45 46 45 45 45 46 45 45 46 46 46 46 47 47 48 49 48 48 48 49 50 50 50 50 52 53 53 52 51 51 51 52 52 52 52 51 50 50 50 50 49 49 50 51 52 50 48 46 44 43 45 47 47 46 45 44 42 41 41 40 40 41 41 42 44 43 44 45 45 44 43 43 43 43 43 42 42 43 43 41 42 43 43 43
45 45 45 45 45 45 46 46 46 46 45 46 46 46 47 46 46 47 48 49 49 48 50 50 47 45 47 51 53 52 52 52 51 51 52 52 52 51 50 48 49 49 49 50 49 50 51 51 49 48 46 44 43 44 45 45 44 42 41 40 40 41 40 41 42 43 43 44 45 44 43 42 42 41 41 41 41 41 40 41 41 41 41 41 42 42 43
45 46 46 46 46 46 46 45 46 46 46 46 45 46 46 47 47 48 48 47 47 48 48 48 48 48 48 49 48 50 52 52 51 51 51 51 51 51 49 50 50 51 53 51 49 50 50 50 47 45 44 42 41 40 43 45 44 42 41 41 40 40 40 41 41 43 44 43 42 41 40 40 40 39 39 39 38 39 40 40 40 41 41 41 42 41 41
45 45 44 44 44 44 45 45 45 45 45 46 45 45 46 47 47 47 47 47 48 49 48 48 48 46 46 47 47 47 50 52 51 51 51 51 49 49 49 49 50 51 51 49 49 48 50 48 46 44 43 42 41 41 44 44 43 41 41 39 39 38 39 41 41 40 39 39 38 38 37 37 37 37 37 37 37 39 40 40 39 39 39 39 38 38 40
45 43 44 44 44 44 44 44 44 45 45 46 46 46 46 46 47 47 47 47 47 48 49 49 49 49 49 48 47 47 51 52 51 50 51 50 48 48 47 47 49 50 49 48 49 49 48 46 44 42 42 42 43 44 43 42 40 39 40 39 39 38 37 39 39 37 37 35 35 35 35 35 34 36 38 39 39 38 36 35 35 37 37 37 37 38 38
44 44 44 44 44 44 44 44 44 44 45 46 47 47 47 48 47 46 47 47 48 48 48 48 48 48 48 49 51 51 51 51 50 50 50 49 48 47 46 47 48 48 49 49 49 48 46 44 43 41 40 42 43 42 40 39 38 37 37 38 38 39 37 37 38 37 36 37 36 36 35 34 36 37 37 37 35 35 33 34 34 35 35 36 36 35 34
44 44 44 44 44 44 44 44 44 45 45 45 46 46 47 48 47 47 47 47 47 47 48 47 48 49 50 50 51 51 51 50 49 49 49 49 50 49 49 49 48 48 49 49 48 46 44 42 40 40 42 43 42 41 39 37 36 36 37 38 39 38 38 37 37 37 37 37 36 35 34 35 34 35 35 34 33 33 33 32 33 34 35 35 35 34 34
44 44 44 44 44 44 44 44 45 45 45 45 46 47 47 47 47 47 46 47 47 47 47 47 48 48 50 50 50 49 49 48 47 48 48 47 47 48 49 47 46 48 48 48 46 43 42 41 38 41 44 43 43 42 39 37 36 36 37 37 36 37 36 37 37 37 36 37 36 35 36 35 33 33 34 33 33 32 33 33 33 34 34 34 34 34 34
44 44 44 44 45 45 45 45 45 46 46 47 47 47 47 47 47 48 47 47 47 46 48 48 48 48 48 47 49 49 50 50 49 47 46 45 45 46 49 47 49 47 47 47 44 42 41 39 40 42 42 43 43 42 39 37 37 36 37 37 38 36 36 37 37 37 37 37 37 36 37 35 35 34 32 33 33 33 33 34 34 34 34 34 34 34 35
45 44 44 45 45 45 45 46 46 46 46 46 46 46 47 47 47 47 47 47 47 47 48 49 49 49 49 50 50 51 50 50 50 49 50 49 48 48 46 47 49 49 49 48 49 41 40 42 43 43 42 42 43 41 38 38 38 37 38 38 38 38 37 37 38 37 37 38 37 36 37 35 36 34 33 33 32 33 34 36 36 35 35 35 35 35 35
44 44 44 45 45 46 46 47 47 47 46 45 45 45 47 46 47 47 48 48 48 48 49 50 49 49 49 50 49 49 48 48 48 48 48 47 46 46 47 46 46 47 45 43 42 42 43 46 43 43 44 43 43 41 37 37 39 38 38 38 39 38 38 38 38 37 38 37 39 38 37 36 37 36 36 34 34 34 35 35 35 35 35 36 36 36 36
44 44 44 44 45 46 46 46 46 46 45 44 45 45 46 45 45 46 47 47 47 49 50 50 51 50 50 49 49 49 49 48 45 45 46 48 46 45 44 44 45 47 44 43 42 42 44 42 43 43 43 43 42 40 38 37 37 38 39 40 39 39 39 38 39 39 37 38 40 39 37 35 36 36 37 35 34 34 35 36 35 35 35 35 35 35 35
46 45 45 45 45 46 45 46 45 46 45 46 45 46 44 45 45 46 46 46 47 48 48 48 48 48 48 49 49 48 48 46 46 45 48 48 49 47 44 46 48 48 46 42 41 40 43 44 44 44 43 43 41 40 38 37 38 39 39 39 39 39 40 40 39 39 39 38 39 38 39 37 37 38 38 36 36 36 37 37 37 37 36 36 36 36 36
46 45 45 45 45 45 45 46 46 47 46 45 45 45 46 47 46 46 47 48 47 47 46 47 46 47 46 48 49 49 50 47 46 46 46 46 45 45 44 47 47 47 45 45 43 41 43 45 45 45 43 41 42 42 40 39 39 39 39 40 39 39 41 40 42 41 41 41 39 38 38 38 38 38 38 38 36 37 37 37 37 37 37 38 37 37 36
48 47 47 47 47 47 46 46 47 48 46 45 45 46 48 48 47 47 48 47 46 45 44 45 44 45 45 45 48 47 49 50 48 47 47 46 47 46 45 46 45 46 45 42 40 40 40 42 41 43 43 42 41 42 41 41 40 40 40 39 40 40 40 40 40 40 40 41 41 40 40 39 39 39 39 38 37 37 38 38 37 37 37 37 37 37 37
46 47 48 49 48 47 47 46 47 48 47 46 47 48 48 48 47 47 47 46 45 44 44 43 44 46 45 43 44 44 45 47 48 48 47 48 45 44 45 45 45 45 44 42 41 42 40 41 43 44 44 42 42 41 42 43 42 40 41 42 41 41 41 40 40 40 41 41 41 40 40 40 39 39 38 38 38 37 38 38 38 38 38 38 38 38 38